TimeCST,TemperatureF,Dew PointF,Humidity,Sea Level PressureIn,VisibilityMPH,Wind Direction,Wind SpeedMPH,Gust SpeedMPH,PrecipitationIn,Events,Conditions,WindDirDegrees,DateUTC
12:54 AM,35.1,32.0,89,29.80,2.0,WNW,15.0,21.9,0.00,Rain,Light Rain,290,2011-11-29 06:54:00
1:54 AM,34.0,32.0,92,29.81,2.0,WNW,16.1,23.0,0.01,Snow,Light Snow,300,2011-11-29 07:54:00
2:54 AM,34.0,32.0,92,29.78,2.0,WNW,13.8,-,0.02,Snow,Light Snow,290,2011-11-29 08:54:00
3:54 AM,34.0,32.0,92,29.81,2.0,WNW,12.7,19.6,0.02,Snow,Light Snow,290,2011-11-29 09:54:00
4:54 AM,34.0,32.0,92,29.81,2.0,WNW,10.4,-,0.03,Snow,Light Snow,290,2011-11-29 10:54:00
5:54 AM,33.8,32.0,93,29.82,2.0,WNW,13.8,-,N/A,Snow,Light Snow,300,2011-11-29 11:54:00
6:54 AM,35.1,33.1,92,29.85,2.0,NW,11.5,20.7,0.02,Snow,Light Snow,310,2011-11-29 12:54:00
7:54 AM,36.0,33.1,89,29.89,2.0,NW,12.7,20.7,0.00,Rain,Light Rain,320,2011-11-29 13:54:00
8:15 AM,37.4,33.8,87,29.89,2.0,NW,9.2,-,0.00,,Overcast,320,2011-11-29 14:15:00
8:38 AM,37.4,33.8,87,29.89,10.0,NW,10.4,19.6,0.00,,Overcast,310,2011-11-29 14:38:00
8:54 AM,37.0,33.1,86,29.92,10.0,NW,10.4,-,0.00,,Overcast,320,2011-11-29 14:54:00
9:54 AM,37.9,32.0,79,29.95,10.0,NNW,15.0,21.9,N/A,,Overcast,330,2011-11-29 15:54:00
10:54 AM,39.0,30.9,73,29.97,10.0,NNW,13.8,23.0,N/A,,Overcast,330,2011-11-29 16:54:00
11:54 AM,39.9,32.0,73,29.99,10.0,NNW,11.5,20.7,N/A,,Overcast,330,2011-11-29 17:54:00
12:54 PM,39.9,32.0,73,29.98,10.0,NNW,12.7,20.7,N/A,,Overcast,330,2011-11-29 18:54:00
1:54 PM,41.0,33.1,73,30.00,10.0,NNW,11.5,-,N/A,,Overcast,330,2011-11-29 19:54:00
2:54 PM,41.0,33.1,73,30.03,10.0,NNW,8.1,-,N/A,,Overcast,330,2011-11-29 20:54:00
3:30 PM,41.0,33.8,76,30.04,10.0,NNW,13.8,18.4,N/A,,Overcast,340,2011-11-29 21:30:00
3:54 PM,41.0,33.1,73,30.06,10.0,NNW,11.5,-,N/A,,Overcast,330,2011-11-29 21:54:00
4:54 PM,41.0,33.1,73,30.08,10.0,NNW,5.8,-,N/A,,Mostly Cloudy,340,2011-11-29 22:54:00
5:54 PM,41.0,32.0,70,30.10,10.0,NW,3.5,-,N/A,,Mostly Cloudy,310,2011-11-29 23:54:00
6:54 PM,39.9,30.9,70,30.12,10.0,Calm,Calm,-,N/A,,Clear,0,2011-11-30 00:54:00
7:54 PM,37.4,32.0,81,30.12,10.0,Calm,Calm,-,N/A,,Clear,0,2011-11-30 01:54:00
8:54 PM,35.1,32.0,89,30.15,10.0,Calm,Calm,-,N/A,,Clear,0,2011-11-30 02:54:00
9:54 PM,35.6,32.0,87,30.15,10.0,Calm,Calm,-,N/A,,Clear,0,2011-11-30 03:54:00
10:54 PM,32.0,30.0,92,30.16,10.0,WSW,3.5,-,N/A,,Clear,240,2011-11-30 04:54:00
11:54 PM,33.1,30.9,92,30.15,10.0,Calm,Calm,-,N/A,,Scattered Clouds,0,2011-11-30 05:54:00